| time (UTC) | temp F | wind direction | speed MPH | gust MPH | rain 1hr in | rain 24hr in | rain mn in | humidity % | barometer mb |
| 20260509080113 | 73 | 149 | 2.0 | 8.0 | 0.00 | 0.00 | 0.00 | 38 | 1014.9 |
| 20260509075623 | 72 | 111 | 4.0 | 10.0 | 0.00 | 0.00 | 0.00 | 37 | 1014.9 |
| 20260509075131 | 72 | 172 | 5.0 | 10.0 | 0.00 | 0.00 | 0.00 | 37 | 1014.8 |
| 20260509074644 | 73 | 112 | 5.0 | 9.0 | 0.00 | 0.00 | 0.00 | 37 | 1014.8 |
| 20260509074119 | 73 | 100 | 4.0 | 9.0 | 0.00 | 0.00 | 0.00 | 37 | 1014.7 |
| 20260509073628 | 73 | 169 | 5.0 | 9.0 | 0.00 | 0.00 | 0.00 | 35 | 1014.7 |
| 20260509073137 | 72 | 103 | 2.0 | 10.0 | 0.00 | 0.00 | 0.00 | 36 | 1014.7 |
| 20260509072620 | 72 | 85 | 5.0 | 10.0 | 0.00 | 0.00 | 0.00 | 35 | 1014.7 |
| 20260509072126 | 72 | 84 | 4.0 | 8.0 | 0.00 | 0.00 | 0.00 | 37 | 1014.7 |
| 20260509071636 | 72 | 151 | 4.0 | 8.0 | 0.00 | 0.00 | 0.00 | 36 | 1014.7 |
| 20260509071118 | 72 | 63 | 3.0 | 10.0 | 0.00 | 0.00 | 0.00 | 36 | 1014.7 |
| 20260509070628 | 72 | 63 | 6.0 | 10.0 | 0.00 | 0.00 | 0.00 | 34 | 1014.8 |
| 20260509070136 | 72 | 65 | 4.0 | 9.0 | 0.00 | 0.00 | 0.00 | 35 | 1014.7 |
| 20260509065618 | 72 | 90 | 5.0 | 12.0 | 0.00 | 0.00 | 0.00 | 36 | 1014.8 |
| 20260509065128 | 72 | 140 | 3.0 | 12.0 | 0.00 | 0.00 | 0.00 | 34 | 1014.8 |
| 20260509064633 | 72 | 145 | 5.0 | 11.0 | 0.00 | 0.00 | 0.00 | 35 | 1014.9 |
| 20260509064116 | 72 | 70 | 4.0 | 11.0 | 0.00 | 0.00 | 0.00 | 36 | 1014.9 |
| 20260509063646 | 72 | 54 | 6.0 | 12.0 | 0.00 | 0.00 | 0.00 | 35 | 1015.0 |
| 20260509063156 | 72 | 48 | 5.0 | 11.0 | 0.00 | 0.00 | 0.00 | 36 | 1014.9 |
| 20260509062636 | 71 | 67 | 6.0 | 12.0 | 0.00 | 0.00 | 0.00 | 37 | 1014.9 |
| 20260509062125 | 71 | 54 | 7.0 | 12.0 | 0.00 | 0.00 | 0.00 | 36 | 1014.9 |
| 20260509061635 | 71 | 35 | 6.0 | 10.0 | 0.00 | 0.00 | 0.00 | 35 | 1015.0 |
| 20260509061114 | 71 | 76 | 4.0 | 10.0 | 0.00 | 0.00 | 0.00 | 37 | 1015.1 |
| 20260509060619 | 71 | 104 | 6.0 | 10.0 | 0.00 | 0.00 | 0.00 | 36 | 1015.1 |
| 20260509060128 | 71 | 120 | 5.0 | 9.0 | 0.00 | 0.00 | 0.00 | 36 | 1015.2 |
| 20260509055636 | 71 | 118 | 5.0 | 12.0 | 0.00 | 0.00 | 0.00 | 37 | 1015.3 |
| 20260509055117 | 70 | 70 | 8.0 | 12.0 | 0.00 | 0.00 | 0.00 | 38 | 1015.4 |
| 20260509054626 | 70 | 72 | 8.0 | 12.0 | 0.00 | 0.00 | 0.00 | 38 | 1015.5 |
| 20260509054135 | 70 | 60 | 6.0 | 12.0 | 0.00 | 0.00 | 0.00 | 39 | 1015.5 |
| 20260509053618 | 70 | 38 | 7.0 | 12.0 | 0.00 | 0.00 | 0.00 | 40 | 1015.6 |
| 20260509053129 | 71 | 54 | 7.0 | 12.0 | 0.00 | 0.00 | 0.00 | 41 | 1015.6 |
| 20260509052633 | 71 | 60 | 5.0 | 8.0 | 0.00 | 0.00 | 0.00 | 43 | 1015.8 |
| 20260509052115 | 71 | 115 | 5.0 | 10.0 | 0.00 | 0.00 | 0.00 | 41 | 1015.8 |
| 20260509051625 | 71 | 63 | 5.0 | 10.0 | 0.00 | 0.00 | 0.00 | 40 | 1015.8 |
| 20260509051134 | 71 | 87 | 3.0 | 10.0 | 0.00 | 0.00 | 0.00 | 42 | 1015.9 |
| 20260509050616 | 70 | 86 | 3.0 | 10.0 | 0.00 | 0.00 | 0.00 | 42 | 1016.0 |
| 20260509050125 | 70 | 56 | 5.0 | 9.0 | 0.00 | 0.00 | 0.00 | 43 | 1016.1 |
| 20260509045657 | 69 | 75 | 5.0 | 13.0 | 0.00 | 0.00 | 0.00 | 44 | 1016.2 |
| 20260509045118 | 69 | 82 | 7.0 | 13.0 | 0.00 | 0.00 | 0.00 | 42 | 1016.2 |
| 20260509044645 | 69 | 82 | 6.0 | 10.0 | 0.00 | 0.00 | 0.00 | 42 | 1016.2 |
| 20260509044146 | 70 | 56 | 4.0 | 10.0 | 0.00 | 0.00 | 0.00 | 42 | 1016.2 |
| 20260509043635 | 70 | 84 | 5.0 | 10.0 | 0.00 | 0.00 | 0.00 | 43 | 1016.2 |
| 20260509043117 | 69 | 77 | 5.0 | 10.0 | 0.00 | 0.00 | 0.00 | 42 | 1016.3 |
| 20260509042628 | 69 | 38 | 5.0 | 10.0 | 0.00 | 0.00 | 0.00 | 42 | 1016.3 |
| 20260509042112 | 69 | 78 | 5.0 | 10.0 | 0.00 | 0.00 | 0.00 | 41 | 1016.3 |
| 20260509041612 | 68 | 25 | 5.0 | 10.0 | 0.00 | 0.00 | 0.00 | 40 | 1016.3 |
| 20260509041137 | 68 | 58 | 7.0 | 10.0 | 0.00 | 0.00 | 0.00 | 40 | 1016.4 |
| 20260509040618 | 68 | 18 | 6.0 | 9.0 | 0.00 | 0.00 | 0.00 | 37 | 1016.4 |
| 20260509040123 | 68 | 29 | 5.0 | 9.0 | 0.00 | 0.00 | 0.00 | 37 | 1016.5 |
| 20260509035655 | 68 | 45 | 6.0 | 12.0 | 0.00 | 0.00 | 0.00 | 38 | 1016.6 |
| 20260509035116 | 68 | 34 | 6.0 | 12.0 | 0.00 | 0.00 | 0.00 | 37 | 1016.7 |
| 20260509034625 | 67 | 67 | 6.0 | 11.0 | 0.00 | 0.00 | 0.00 | 39 | 1016.6 |
| 20260509034157 | 67 | 85 | 5.0 | 11.0 | 0.00 | 0.00 | 0.00 | 40 | 1016.7 |
| 20260509033617 | 67 | 77 | 6.0 | 11.0 | 0.00 | 0.00 | 0.00 | 38 | 1016.7 |
| 20260509033121 | 67 | 339 | 7.0 | 11.0 | 0.00 | 0.00 | 0.00 | 38 | 1016.7 |
| 20260509032630 | 67 | 116 | 6.0 | 11.0 | 0.00 | 0.00 | 0.00 | 40 | 1016.7 |
| 20260509032132 | 67 | 80 | 6.0 | 10.0 | 0.00 | 0.00 | 0.00 | 42 | 1016.9 |
| 20260509031620 | 67 | 49 | 7.0 | 10.0 | 0.00 | 0.00 | 0.00 | 44 | 1016.8 |
| 20260509031149 | 67 | 30 | 6.0 | 13.0 | 0.00 | 0.00 | 0.00 | 41 | 1016.9 |
| 20260509030611 | 66 | 59 | 7.0 | 13.0 | 0.00 | 0.00 | 0.00 | 45 | 1017.0 |
| 20260509030141 | 66 | 136 | 7.0 | 12.0 | 0.00 | 0.00 | 0.00 | 48 | 1017.0 |
| 20260509025625 | 66 | 90 | 5.0 | 12.0 | 0.00 | 0.00 | 0.00 | 50 | 1017.1 |
| 20260509025155 | 66 | 36 | 5.0 | 10.0 | 0.00 | 0.00 | 0.00 | 50 | 1017.2 |
| 20260509024615 | 66 | 60 | 4.0 | 10.0 | 0.00 | 0.00 | 0.00 | 50 | 1017.3 |
| 20260509024124 | 66 | 87 | 6.0 | 10.0 | 0.00 | 0.00 | 0.00 | 52 | 1017.2 |
| 20260509023634 | 66 | 54 | 5.0 | 10.0 | 0.00 | 0.00 | 0.00 | 52 | 1017.3 |
| 20260509023114 | 65 | 7 | 6.0 | 10.0 | 0.00 | 0.00 | 0.00 | 54 | 1017.3 |
| 20260509022614 | 65 | 28 | 5.0 | 10.0 | 0.00 | 0.00 | 0.00 | 53 | 1017.3 |
| 20260509022123 | 65 | 68 | 6.0 | 10.0 | 0.00 | 0.00 | 0.00 | 53 | 1017.3 |
| 20260509021629 | 65 | 43 | 5.0 | 9.0 | 0.00 | 0.00 | 0.00 | 55 | 1017.3 |
| 20260509021112 | 65 | 34 | 5.0 | 10.0 | 0.00 | 0.00 | 0.00 | 54 | 1017.4 |
| 20260509020622 | 65 | 98 | 7.0 | 10.0 | 0.00 | 0.00 | 0.00 | 52 | 1017.4 |
| 20260509020130 | 65 | 76 | 6.0 | 10.0 | 0.00 | 0.00 | 0.00 | 54 | 1017.5 |
| 20260509015612 | 65 | 20 | 5.0 | 9.0 | 0.00 | 0.00 | 0.00 | 54 | 1017.5 |
| 20260509015114 | 65 | 62 | 4.0 | 8.0 | 0.00 | 0.00 | 0.00 | 58 | 1017.5 |
| 20260509014624 | 65 | 53 | 4.0 | 8.0 | 0.00 | 0.00 | 0.00 | 55 | 1017.6 |
| 20260509014133 | 65 | 66 | 4.0 | 7.0 | 0.00 | 0.00 | 0.00 | 56 | 1017.7 |
| 20260509013619 | 65 | 353 | 4.0 | 7.0 | 0.00 | 0.00 | 0.00 | 55 | 1017.7 |
| 20260509013128 | 64 | 54 | 4.0 | 8.0 | 0.00 | 0.00 | 0.00 | 57 | 1017.6 |
| 20260509012638 | 64 | 1 | 4.0 | 8.0 | 0.00 | 0.00 | 0.00 | 54 | 1017.7 |
| 20260509012119 | 64 | 340 | 5.0 | 7.0 | 0.00 | 0.00 | 0.00 | 54 | 1017.7 |
| 20260509011630 | 64 | 316 | 4.0 | 7.0 | 0.00 | 0.00 | 0.00 | 54 | 1017.9 |
| 20260509011112 | 64 | 49 | 4.0 | 8.0 | 0.00 | 0.00 | 0.00 | 51 | 1017.8 |
| 20260509010613 | 64 | 63 | 5.0 | 8.0 | 0.00 | 0.00 | 0.00 | 51 | 1017.9 |
| 20260509010119 | 64 | 51 | 4.0 | 10.0 | 0.00 | 0.00 | 0.00 | 53 | 1017.9 |
| 20260509005629 | 64 | 51 | 5.0 | 10.0 | 0.00 | 0.00 | 0.00 | 53 | 1017.8 |
| 20260509005133 | 64 | 24 | 4.0 | 7.0 | 0.00 | 0.00 | 0.00 | 51 | 1017.9 |
| 20260509004622 | 64 | 65 | 4.0 | 7.0 | 0.00 | 0.00 | 0.00 | 51 | 1017.8 |
| 20260509004132 | 64 | 29 | 3.0 | 8.0 | 0.00 | 0.00 | 0.00 | 51 | 1017.7 |
| 20260509003615 | 64 | 48 | 4.0 | 8.0 | 0.00 | 0.00 | 0.00 | 49 | 1017.8 |
| 20260509003122 | 64 | 340 | 5.0 | 7.0 | 0.00 | 0.00 | 0.00 | 49 | 1017.7 |
| 20260509002653 | 64 | 58 | 3.0 | 8.0 | 0.00 | 0.00 | 0.00 | 51 | 1017.7 |
| 20260509002111 | 64 | 60 | 4.0 | 8.0 | 0.00 | 0.00 | 0.00 | 52 | 1017.7 |
| 20260509001642 | 64 | 52 | 4.0 | 6.0 | 0.00 | 0.00 | 0.00 | 53 | 1017.7 |
| 20260509001201 | 64 | 27 | 2.0 | 6.0 | 0.00 | 0.00 | 0.00 | 52 | 1017.7 |
| 20260509000626 | 64 | 96 | 4.0 | 8.0 | 0.00 | 0.00 | 0.00 | 53 | 1017.7 |
| 20260509000135 | 64 | 82 | 5.0 | 8.0 | 0.00 | 0.00 | 0.00 | 52 | 1017.6 |
| 20260508235617 | 64 | 80 | 3.0 | 5.0 | 0.00 | 0.00 | 0.00 | 52 | 1017.7 |
| 20260508235148 | 64 | 82 | 2.0 | 5.0 | 0.00 | 0.00 | 0.00 | 52 | 1017.7 |
| 20260508234631 | 63 | 110 | 2.0 | 6.0 | 0.00 | 0.00 | 0.00 | 53 | 1017.6 |
| 20260508234114 | 63 | 103 | 4.0 | 6.0 | 0.00 | 0.00 | 0.00 | 51 | 1017.6 |
| 20260508233644 | 64 | 78 | 3.0 | 6.0 | 0.00 | 0.00 | 0.00 | 53 | 1017.6 |
| 20260508233130 | 64 | 86 | 1.0 | 5.0 | 0.00 | 0.00 | 0.00 | 56 | 1017.7 |
| 20260508232613 | 64 | 65 | 3.0 | 4.0 | 0.00 | 0.00 | 0.00 | 57 | 1017.6 |
| 20260508232122 | 64 | 86 | 2.0 | 4.0 | 0.00 | 0.00 | 0.00 | 57 | 1017.6 |
| 20260508231653 | 63 | 131 | 1.0 | 3.0 | 0.00 | 0.00 | 0.00 | 55 | 1017.6 |
| 20260508231115 | 63 | 95 | 1.0 | 3.0 | 0.00 | 0.00 | 0.00 | 56 | 1017.5 |
| 20260508230621 | 64 | 109 | 1.0 | 2.0 | 0.00 | 0.00 | 0.00 | 56 | 1017.5 |
| 20260508230152 | 64 | 175 | 1.0 | 2.0 | 0.00 | 0.00 | 0.00 | 54 | 1017.5 |
| 20260508225636 | 63 | 148 | 0.0 | 1.0 | 0.00 | 0.00 | 0.00 | 57 | 1017.5 |
| 20260508225124 | 63 | 148 | 0.0 | 1.0 | 0.00 | 0.00 | 0.00 | 57 | 1017.5 |
| 20260508224632 | 63 | 148 | 0.0 | 1.0 | 0.00 | 0.00 | 0.00 | 57 | 1017.5 |
| 20260508224116 | 63 | 148 | 0.0 | 1.0 | 0.00 | 0.00 | 0.00 | 57 | 1017.4 |
| 20260508223627 | 63 | 158 | 0.0 | 0.0 | 0.00 | 0.00 | 0.00 | 60 | 1017.4 |
| 20260508223153 | 62 | 176 | 0.0 | 0.0 | 0.00 | 0.00 | 0.00 | 62 | 1017.4 |
| 20260508222615 | 61 | 176 | 0.0 | 0.0 | 0.00 | 0.00 | 0.00 | 64 | 1017.3 |
| 20260508222124 | 61 | 176 | 0.0 | 0.0 | 0.00 | 0.00 | 0.00 | 66 | 1017.3 |
| 20260508221634 | 60 | 176 | 0.0 | 0.0 | 0.00 | 0.00 | 0.00 | 71 | 1017.3 |
| 20260508221117 | 59 | 177 | 0.0 | 0.0 | 0.00 | 0.00 | 0.00 | 73 | 1017.2 |
| 20260508220627 | 58 | 176 | 0.0 | 0.0 | 0.00 | 0.00 | 0.00 | 77 | 1017.2 |
| 20260508220136 | 57 | 177 | 0.0 | 0.0 | 0.00 | 0.00 | 0.00 | 78 | 1017.1 |
| 20260508215619 | 55 | 177 | 0.0 | 0.0 | 0.00 | 0.00 | 0.00 | 79 | 1017.1 |
| 20260508215129 | 55 | 177 | 0.0 | 0.0 | 0.00 | 0.00 | 0.00 | 81 | 1017.1 |
| 20260508214614 | 54 | 177 | 0.0 | 0.0 | 0.00 | 0.00 | 0.00 | 82 | 1017.0 |
| 20260508214124 | 53 | 177 | 0.0 | 0.0 | 0.00 | 0.00 | 0.00 | 84 | 1017.0 |
| 20260508213635 | 52 | 177 | 0.0 | 1.0 | 0.00 | 0.00 | 0.00 | 85 | 1016.8 |
| 20260508213138 | 51 | 177 | 0.0 | 1.0 | 0.00 | 0.00 | 0.00 | 85 | 1016.8 |
| 20260508212627 | 50 | 177 | 0.0 | 1.0 | 0.00 | 0.00 | 0.00 | 86 | 1016.8 |
| 20260508212132 | 50 | 177 | 1.0 | 1.0 | 0.00 | 0.00 | 0.00 | 86 | 1016.6 |
| 20260508211642 | 49 | 177 | 1.0 | 1.0 | 0.00 | 0.00 | 0.00 | 86 | 1016.7 |
| 20260508211148 | 49 | 177 | 0.0 | 1.0 | 0.00 | 0.00 | 0.00 | 86 | 1016.6 |
| 20260508210638 | 49 | 177 | 0.0 | 0.0 | 0.00 | 0.00 | 0.00 | 85 | 1016.7 |
| 20260508210122 | 49 | 177 | 0.0 | 1.0 | 0.00 | 0.00 | 0.00 | 85 | 1016.4 |
| 20260508205116 | 49 | 177 | 0.0 | 1.0 | 0.00 | 0.00 | 0.00 | 85 | 1016.3 |
| 20260508204626 | 49 | 177 | 1.0 | 1.0 | 0.00 | 0.00 | 0.00 | 85 | 1016.2 |
| 20260508204136 | 49 | 177 | 1.0 | 1.0 | 0.00 | 0.00 | 0.00 | 85 | 1016.3 |
| 20260508203615 | 49 | 177 | 1.0 | 1.0 | 0.00 | 0.00 | 0.00 | 85 | 1016.3 |
| 20260508203124 | 49 | 177 | 1.0 | 1.0 | 0.00 | 0.00 | 0.00 | 85 | 1016.2 |
| 20260508202630 | 49 | 177 | 1.0 | 1.0 | 0.00 | 0.00 | 0.00 | 85 | 1016.3 |
| 20260508202113 | 49 | 177 | 1.0 | 1.0 | 0.00 | 0.00 | 0.00 | 84 | 1016.3 |
| 20260508201625 | 49 | 177 | 0.0 | 1.0 | 0.00 | 0.00 | 0.00 | 84 | 1016.3 |
| 20260508201154 | 49 | 177 | 0.0 | 1.0 | 0.00 | 0.00 | 0.00 | 84 | 1016.1 |
| 20260508200615 | 49 | 177 | 0.0 | 1.0 | 0.00 | 0.00 | 0.00 | 84 | 1016.1 |
| 20260508200124 | 50 | 177 | 0.0 | 1.0 | 0.00 | 0.00 | 0.00 | 84 | 1016.0 |
| 20260508195634 | 50 | 178 | 1.0 | 1.0 | 0.00 | 0.00 | 0.00 | 84 | 1016.0 |
| 20260508195118 | 50 | 177 | 0.0 | 2.0 | 0.00 | 0.00 | 0.00 | 83 | 1016.0 |
| 20260508194623 | 50 | 178 | 1.0 | 2.0 | 0.00 | 0.00 | 0.00 | 83 | 1016.1 |
| 20260508194132 | 50 | 176 | 1.0 | 1.0 | 0.00 | 0.00 | 0.00 | 83 | 1016.0 |
| 20260508193613 | 50 | 176 | 1.0 | 2.0 | 0.00 | 0.00 | 0.00 | 82 | 1015.8 |
| 20260508193122 | 51 | 176 | 0.0 | 2.0 | 0.00 | 0.00 | 0.00 | 82 | 1015.9 |
| 20260508192653 | 51 | 176 | 1.0 | 2.0 | 0.00 | 0.00 | 0.00 | 82 | 1015.9 |
| 20260508192115 | 51 | 175 | 0.0 | 1.0 | 0.00 | 0.00 | 0.00 | 82 | 1015.9 |
| 20260508191625 | 51 | 175 | 0.0 | 1.0 | 0.00 | 0.00 | 0.00 | 81 | 1015.8 |
| 20260508191153 | 51 | 175 | 0.0 | 1.0 | 0.00 | 0.00 | 0.00 | 81 | 1015.6 |
| 20260508190615 | 51 | 178 | 0.0 | 1.0 | 0.00 | 0.00 | 0.00 | 80 | 1015.4 |
| 20260508190122 | 52 | 178 | 0.0 | 1.0 | 0.00 | 0.00 | 0.00 | 80 | 1015.3 |
| 20260508185633 | 52 | 178 | 0.0 | 1.0 | 0.00 | 0.00 | 0.00 | 80 | 1015.4 |
| 20260508185116 | 52 | 186 | 0.0 | 0.0 | 0.00 | 0.00 | 0.00 | 79 | 1015.2 |
| 20260508184628 | 52 | 186 | 0.0 | 0.0 | 0.00 | 0.00 | 0.00 | 79 | 1015.3 |
| 20260508184112 | 53 | 186 | 0.0 | 0.0 | 0.00 | 0.00 | 0.00 | 78 | 1015.2 |
| 20260508183613 | 53 | 186 | 0.0 | 0.0 | 0.00 | 0.00 | 0.00 | 77 | 1015.0 |
| 20260508183120 | 53 | 186 | 0.0 | 2.0 | 0.00 | 0.00 | 0.00 | 77 | 1015.0 |
| 20260508182628 | 54 | 186 | 0.0 | 3.0 | 0.00 | 0.00 | 0.00 | 76 | 1015.0 |
| 20260508182136 | 54 | 186 | 1.0 | 4.0 | 0.00 | 0.00 | 0.00 | 76 | 1014.9 |
| 20260508181618 | 54 | 184 | 1.0 | 4.0 | 0.00 | 0.00 | 0.00 | 75 | 1014.9 |
| 20260508181128 | 54 | 188 | 1.0 | 4.0 | 0.00 | 0.00 | 0.00 | 75 | 1014.9 |
| 20260508180611 | 54 | 187 | 1.0 | 3.0 | 0.00 | 0.00 | 0.00 | 75 | 1014.9 |
| 20260508180132 | 55 | 191 | 1.0 | 4.0 | 0.00 | 0.00 | 0.00 | 75 | 1014.9 |
| 20260508175617 | 55 | 208 | 2.0 | 4.0 | 0.00 | 0.00 | 0.00 | 75 | 1014.8 |
| 20260508175121 | 55 | 190 | 2.0 | 5.0 | 0.00 | 0.00 | 0.00 | 75 | 1014.9 |
| 20260508174631 | 55 | 213 | 2.0 | 7.0 | 0.00 | 0.00 | 0.00 | 75 | 1014.7 |
| 20260508174135 | 54 | 200 | 3.0 | 7.0 | 0.00 | 0.00 | 0.00 | 76 | 1014.8 |
| 20260508173623 | 54 | 217 | 3.0 | 8.0 | 0.00 | 0.00 | 0.00 | 76 | 1014.8 |
| 20260508173132 | 55 | 196 | 3.0 | 8.0 | 0.00 | 0.00 | 0.00 | 75 | 1014.9 |
| 20260508172615 | 55 | 209 | 4.0 | 7.0 | 0.00 | 0.00 | 0.00 | 75 | 1014.9 |
| 20260508172125 | 55 | 207 | 3.0 | 7.0 | 0.00 | 0.00 | 0.00 | 75 | 1014.8 |
| 20260508171653 | 55 | 233 | 4.0 | 8.0 | 0.00 | 0.00 | 0.00 | 75 | 1014.9 |
| 20260508171114 | 55 | 211 | 4.0 | 8.0 | 0.00 | 0.00 | 0.00 | 75 | 1014.8 |
| 20260508170623 | 55 | 233 | 5.0 | 8.0 | 0.00 | 0.00 | 0.00 | 75 | 1014.8 |
| 20260508170153 | 55 | 211 | 4.0 | 8.0 | 0.00 | 0.00 | 0.00 | 75 | 1014.7 |
| 20260508165615 | 55 | 202 | 2.0 | 8.0 | 0.00 | 0.00 | 0.00 | 77 | 1014.6 |
| 20260508165146 | 54 | 192 | 4.0 | 8.0 | 0.00 | 0.00 | 0.00 | 80 | 1014.6 |
| 20260508164634 | 53 | 173 | 2.0 | 5.0 | 0.00 | 0.00 | 0.00 | 83 | 1014.6 |
| 20260508164114 | 52 | 175 | 1.0 | 2.0 | 0.00 | 0.00 | 0.00 | 84 | 1014.5 |
| 20260508163621 | 52 | 183 | 0.0 | 1.0 | 0.00 | 0.00 | 0.00 | 83 | 1014.4 |
| 20260508162612 | 52 | 183 | 0.0 | 2.0 | 0.00 | 0.00 | 0.00 | 82 | 1014.4 |
| 20260508162121 | 52 | 183 | 0.0 | 2.0 | 0.00 | 0.00 | 0.00 | 82 | 1014.3 |
| 20260508161629 | 52 | 182 | 0.0 | 1.0 | 0.00 | 0.00 | 0.00 | 82 | 1014.2 |
| 20260508161111 | 52 | 182 | 1.0 | 1.0 | 0.00 | 0.00 | 0.00 | 82 | 1014.2 |
| 20260508160621 | 52 | 182 | 0.0 | 2.0 | 0.00 | 0.00 | 0.00 | 82 | 1014.1 |
| 20260508160125 | 52 | 183 | 1.0 | 2.0 | 0.00 | 0.00 | 0.00 | 82 | 1014.1 |
| 20260508155635 | 52 | 181 | 1.0 | 2.0 | 0.00 | 0.00 | 0.00 | 82 | 1014.2 |
| 20260508155117 | 52 | 170 | 0.0 | 2.0 | 0.00 | 0.00 | 0.00 | 81 | 1014.3 |
| 20260508154627 | 52 | 170 | 0.0 | 2.0 | 0.00 | 0.00 | 0.00 | 81 | 1014.3 |
| 20260508154137 | 52 | 170 | 0.0 | 3.0 | 0.00 | 0.00 | 0.00 | 81 | 1014.2 |
| 20260508153622 | 52 | 181 | 1.0 | 3.0 | 0.00 | 0.00 | 0.00 | 81 | 1014.2 |
| 20260508153130 | 52 | 188 | 1.0 | 2.0 | 0.00 | 0.00 | 0.00 | 81 | 1014.2 |
| 20260508152611 | 52 | 176 | 0.0 | 0.0 | 0.00 | 0.00 | 0.00 | 81 | 1014.1 |
| 20260508152117 | 52 | 176 | 0.0 | 0.0 | 0.00 | 0.00 | 0.00 | 80 | 1014.1 |
| 20260508151629 | 53 | 176 | 0.0 | 0.0 | 0.00 | 0.00 | 0.00 | 80 | 1014.1 |
| 20260508151113 | 53 | 176 | 0.0 | 0.0 | 0.00 | 0.00 | 0.00 | 79 | 1014.0 |
| 20260508150625 | 53 | 176 | 0.0 | 0.0 | 0.00 | 0.00 | 0.00 | 78 | 1014.1 |
| 20260508150136 | 53 | 176 | 0.0 | 2.0 | 0.00 | 0.00 | 0.00 | 78 | 1014.0 |
| 20260508145611 | 53 | 176 | 1.0 | 2.0 | 0.00 | 0.00 | 0.00 | 78 | 1014.0 |
| 20260508145119 | 54 | 176 | 1.0 | 2.0 | 0.00 | 0.00 | 0.00 | 78 | 1014.0 |
| 20260508144611 | 54 | 176 | 0.0 | 1.0 | 0.00 | 0.00 | 0.00 | 78 | 1013.9 |
| 20260508144136 | 54 | 176 | 0.0 | 2.0 | 0.00 | 0.00 | 0.00 | 77 | 1013.9 |
| 20260508143619 | 54 | 176 | 0.0 | 2.0 | 0.00 | 0.00 | 0.00 | 77 | 1014.0 |
| 20260508143128 | 54 | 176 | 0.0 | 1.0 | 0.00 | 0.00 | 0.00 | 77 | 1014.0 |
| 20260508142638 | 54 | 176 | 0.0 | 1.0 | 0.00 | 0.00 | 0.00 | 77 | 1014.0 |
| 20260508142117 | 54 | 176 | 0.0 | 1.0 | 0.00 | 0.00 | 0.00 | 77 | 1014.0 |
| 20260508141627 | 54 | 176 | 0.0 | 2.0 | 0.00 | 0.00 | 0.00 | 76 | 1013.9 |
| 20260508140648 | 54 | 174 | 0.0 | 2.0 | 0.00 | 0.00 | 0.00 | 76 | 1013.8 |
| 20260508140135 | 54 | 180 | 1.0 | 2.0 | 0.00 | 0.00 | 0.00 | 76 | 1013.8 |
| 20260508135620 | 54 | 157 | 0.0 | 1.0 | 0.00 | 0.00 | 0.00 | 76 | 1013.7 |
| 20260508135150 | 55 | 157 | 0.0 | 1.0 | 0.00 | 0.00 | 0.00 | 76 | 1013.8 |
| 20260508134612 | 55 | 157 | 1.0 | 2.0 | 0.00 | 0.00 | 0.00 | 76 | 1013.7 |
| 20260508134122 | 55 | 156 | 1.0 | 2.0 | 0.00 | 0.00 | 0.00 | 76 | 1013.5 |
| 20260508133653 | 55 | 155 | 0.0 | 2.0 | 0.00 | 0.00 | 0.00 | 76 | 1013.5 |
| 20260508133114 | 55 | 155 | 1.0 | 2.0 | 0.00 | 0.00 | 0.00 | 75 | 1013.5 |
| 20260508132623 | 55 | 155 | 0.0 | 1.0 | 0.00 | 0.00 | 0.00 | 75 | 1013.4 |
| 20260508132113 | 55 | 155 | 1.0 | 1.0 | 0.00 | 0.00 | 0.00 | 75 | 1013.3 |
| 20260508131640 | 56 | 155 | 0.0 | 2.0 | 0.00 | 0.00 | 0.00 | 75 | 1013.4 |
| 20260508131129 | 56 | 155 | 0.0 | 2.0 | 0.00 | 0.00 | 0.00 | 74 | 1013.4 |
| 20260508130612 | 56 | 155 | 0.0 | 1.0 | 0.00 | 0.00 | 0.00 | 74 | 1013.3 |
| 20260508130121 | 56 | 155 | 0.0 | 1.0 | 0.00 | 0.00 | 0.00 | 74 | 1013.3 |
| 20260508125630 | 56 | 154 | 0.0 | 1.0 | 0.00 | 0.00 | 0.00 | 74 | 1013.3 |
| 20260508125209 | 56 | 155 | 1.0 | 2.0 | 0.00 | 0.00 | 0.00 | 73 | 1013.4 |
| 20260508124641 | 56 | 154 | 1.0 | 2.0 | 0.00 | 0.00 | 0.00 | 73 | 1013.3 |
| 20260508124130 | 57 | 145 | 0.0 | 1.0 | 0.00 | 0.00 | 0.00 | 73 | 1013.3 |
| 20260508123612 | 57 | 145 | 0.0 | 1.0 | 0.00 | 0.00 | 0.00 | 72 | 1013.2 |
| 20260508123122 | 57 | 145 | 0.0 | 1.0 | 0.00 | 0.00 | 0.00 | 71 | 1013.2 |
| 20260508122633 | 57 | 145 | 0.0 | 1.0 | 0.00 | 0.00 | 0.00 | 71 | 1013.1 |
| 20260508122115 | 57 | 145 | 0.0 | 1.0 | 0.00 | 0.00 | 0.00 | 70 | 1013.1 |
| 20260508121624 | 58 | 145 | 0.0 | 2.0 | 0.00 | 0.00 | 0.00 | 70 | 1013.1 |
| 20260508121133 | 58 | 145 | 1.0 | 2.0 | 0.00 | 0.00 | 0.00 | 69 | 1013.0 |
| 20260508120613 | 58 | 170 | 0.0 | 0.0 | 0.00 | 0.00 | 0.00 | 69 | 1013.1 |
| 20260508120125 | 58 | 170 | 0.0 | 0.0 | 0.00 | 0.00 | 0.00 | 68 | 1013.0 |
| 20260508115636 | 59 | 170 | 0.0 | 1.0 | 0.00 | 0.00 | 0.00 | 68 | 1013.1 |
| 20260508115118 | 59 | 170 | 0.0 | 1.0 | 0.00 | 0.00 | 0.00 | 67 | 1012.9 |
| 20260508114628 | 59 | 170 | 0.0 | 0.0 | 0.00 | 0.00 | 0.00 | 66 | 1012.9 |
| 20260508114111 | 60 | 170 | 0.0 | 1.0 | 0.00 | 0.00 | 0.00 | 66 | 1012.9 |
| 20260508113611 | 60 | 170 | 0.0 | 2.0 | 0.00 | 0.00 | 0.00 | 65 | 1012.8 |
| 20260508113120 | 60 | 170 | 1.0 | 2.0 | 0.00 | 0.00 | 0.00 | 64 | 1012.7 |
| 20260508112626 | 61 | 161 | 1.0 | 1.0 | 0.00 | 0.00 | 0.00 | 64 | 1012.7 |
| 20260508112156 | 61 | 158 | 0.0 | 2.0 | 0.00 | 0.00 | 0.00 | 63 | 1012.6 |
| 20260508111618 | 61 | 157 | 0.0 | 2.0 | 0.00 | 0.00 | 0.00 | 62 | 1012.6 |
| 20260508111128 | 61 | 155 | 0.0 | 2.0 | 0.00 | 0.00 | 0.00 | 62 | 1012.6 |
| 20260508110637 | 61 | 155 | 0.0 | 2.0 | 0.00 | 0.00 | 0.00 | 61 | 1012.5 |
| 20260508110117 | 62 | 156 | 1.0 | 2.0 | 0.00 | 0.00 | 0.00 | 61 | 1012.5 |
| 20260508105627 | 62 | 160 | 1.0 | 4.0 | 0.00 | 0.00 | 0.00 | 60 | 1012.4 |
| 20260508105155 | 62 | 156 | 1.0 | 4.0 | 0.00 | 0.00 | 0.00 | 60 | 1012.3 |
| 20260508104616 | 62 | 146 | 1.0 | 3.0 | 0.00 | 0.00 | 0.00 | 59 | 1012.2 |
| 20260508104127 | 63 | 155 | 1.0 | 4.0 | 0.00 | 0.00 | 0.00 | 59 | 1012.2 |
| 20260508103635 | 63 | 157 | 2.0 | 6.0 | 0.00 | 0.00 | 0.00 | 58 | 1012.0 |
| 20260508103117 | 63 | 169 | 1.0 | 6.0 | 0.00 | 0.00 | 0.00 | 58 | 1012.0 |
| 20260508102630 | 63 | 167 | 1.0 | 5.0 | 0.00 | 0.00 | 0.00 | 58 | 1012.0 |
| 20260508102112 | 63 | 150 | 2.0 | 7.0 | 0.00 | 0.00 | 0.00 | 58 | 1012.0 |
| 20260508101633 | 64 | 135 | 2.0 | 9.0 | 0.00 | 0.00 | 0.00 | 58 | 1011.9 |
| 20260508101119 | 64 | 121 | 4.0 | 9.0 | 0.00 | 0.00 | 0.00 | 58 | 1011.9 |
| 20260508100630 | 64 | 151 | 2.0 | 8.0 | 0.00 | 0.00 | 0.00 | 58 | 1011.8 |
| 20260508100113 | 64 | 133 | 1.0 | 8.0 | 0.00 | 0.00 | 0.00 | 58 | 1011.7 |
| 20260508095620 | 65 | 129 | 5.0 | 8.0 | 0.00 | 0.00 | 0.00 | 57 | 1011.7 |
| 20260508095130 | 65 | 136 | 2.0 | 11.0 | 0.00 | 0.00 | 0.00 | 55 | 1011.5 |
| 20260508094613 | 66 | 163 | 3.0 | 13.0 | 0.00 | 0.00 | 0.00 | 53 | 1011.3 |
| 20260508094113 | 66 | 148 | 6.0 | 13.0 | 0.00 | 0.00 | 0.00 | 51 | 1011.3 |
| 20260508093622 | 67 | 146 | 4.0 | 7.0 | 0.00 | 0.00 | 0.00 | 48 | 1011.1 |
| 20260508093126 | 67 | 146 | 1.0 | 7.0 | 0.00 | 0.00 | 0.00 | 45 | 1010.9 |
| 20260508092635 | 68 | 165 | 2.0 | 7.0 | 0.00 | 0.00 | 0.00 | 44 | 1010.9 |
| 20260508092116 | 68 | 150 | 2.0 | 8.0 | 0.00 | 0.00 | 0.00 | 44 | 1010.8 |
| 20260508091627 | 68 | 212 | 3.0 | 8.0 | 0.00 | 0.00 | 0.00 | 43 | 1010.9 |
| 20260508091157 | 68 | 175 | 1.0 | 6.0 | 0.00 | 0.00 | 0.00 | 42 | 1010.9 |
| 20260508090617 | 68 | 154 | 2.0 | 7.0 | 0.00 | 0.00 | 0.00 | 40 | 1010.8 |
| 20260508090126 | 68 | 144 | 2.0 | 9.0 | 0.00 | 0.00 | 0.00 | 39 | 1010.8 |
| 20260508085632 | 68 | 148 | 2.0 | 9.0 | 0.00 | 0.00 | 0.00 | 37 | 1010.7 |
| 20260508085113 | 69 | 127 | 3.0 | 11.0 | 0.00 | 0.00 | 0.00 | 37 | 1010.7 |
| 20260508084644 | 69 | 160 | 4.0 | 11.0 | 0.00 | 0.00 | 0.00 | 35 | 1010.6 |
| 20260508084154 | 69 | 159 | 5.0 | 10.0 | 0.00 | 0.00 | 0.00 | 34 | 1010.5 |
| 20260508083615 | 70 | 168 | 3.0 | 10.0 | 0.00 | 0.00 | 0.00 | 36 | 1010.5 |
| 20260508083124 | 69 | 224 | 6.0 | 10.0 | 0.00 | 0.00 | 0.00 | 37 | 1010.4 |
| 20260508082633 | 69 | 227 | 4.0 | 12.0 | 0.00 | 0.00 | 0.00 | 38 | 1010.2 |
| 20260508082114 | 69 | 166 | 6.0 | 12.0 | 0.00 | 0.00 | 0.00 | 38 | 1010.3 |
| 20260508081621 | 69 | 173 | 1.0 | 9.0 | 0.00 | 0.00 | 0.00 | 40 | 1010.4 |
| 20260508081129 | 68 | 178 | 4.0 | 9.0 | 0.00 | 0.00 | 0.00 | 39 | 1010.3 |
| 20260508080632 | 68 | 167 | 3.0 | 10.0 | 0.00 | 0.00 | 0.00 | 40 | 1010.3 |